Regional Weather Roundup
Issued by NWS

Home | Current Version | Previous Version | Graphics & Text | Print | Product List | Glossary On
Versions: 1 2 3 4 5 6 7 8 9 10 11 12 13 14 15 16 17 18 19 20 21 22 23 24 25 26 27 28 29 30 31 32 33 34 35 36 37 38 39 40 41 42 43 44 45 46 47 48 49 50
336
ASUS43 KLMK 231702
RWRKY
KENTUCKY REGIONAL WEATHER ROUNDUP
NATIONAL WEATHER SERVICE LOUISVILLE KY
100 PM EDT WED AUG 23 2017

NOTE "FAIR" INDICATES FEW OR NO CLOUDS BELOW 12,000 FEET
WITH NO SIGNIFICANT WEATHER AND/OR OBSTRUCTIONS TO VISIBILITY.

KYZ001>023-026-027-061>063-070>075-231800-
WESTERN AND SOUTH CENTRAL KENTUCKY

CITY           SKY/WX    TMP DP  RH WIND       PRES   REMARKS
PADUCAH        MOSUNNY   78  57  48 NW7       30.07F
HENDERSON      NOT AVBL
OWENSBORO      MOSUNNY   77  60  55 NW10      30.06F
HOPKINSVILLE   SUNNY     77  57  50 NW8       30.05F
BOWLING GREEN  SUNNY     78  58  49 VRB6      30.05S
GLASGOW        MOSUNNY   79  56  45 CALM      30.04S
$$

KYZ024-025-028>034-038-045-046-053-231800-
NORTH CENTRAL KENTUCKY

CITY           SKY/WX    TMP DP  RH WIND       PRES   REMARKS
LOUISVILLE/SDF MOSUNNY   79  56  45 VRB3      30.04S
LOUISVILLE/LOU SUNNY     78  58  49 NW8       30.04F
FORT KNOX      MOSUNNY   76  58  53 NE6       30.03F
$$

KYZ035>037-039>044-047>052-055>060-089>105-231800-
NORTHEAST KENTUCKY

CITY           SKY/WX    TMP DP  RH WIND       PRES   REMARKS
LEXINGTON      SUNNY     76  56  49 VRB5      30.04F
COVINGTON      MOSUNNY   76  55  48 NW7       30.04F
FRANKFORT      SUNNY     78  53  41 N6        30.04S
$$

KYZ054-064>069-076>088-106>120-231800-
SOUTHEAST KENTUCKY

CITY           SKY/WX    TMP DP  RH WIND       PRES   REMARKS
JACKSON        MOSUNNY   76  63  64 VRB6      30.02F
LONDON         PTSUNNY   79  61  53 W8        30.02S
SOMERSET       NOT AVBL
MIDDLESBORO    MOSUNNY   81  64  55 NW6       30.01F
MONTICELLO     PTSUNNY   78  65  63 NW8       30.05R
$$





USA.gov is the U.S. government's official web portal to all federal, state and local government web resources and services.